Location: Litvinovka
(48.6667°N, 34.3500°E)
Time: 01:20:24
(UTC+00:00)

Cosmos 1898 Rocket - Pass Details

Date: 18 September 2020
Orbit: 753 x 784 km, 74.0° (Epoch: 23 October)

Event Time Altitude Azimuth Distance (km) Brightness Sun altitude
Rises 16:44:09 0° 204° (SSW) 3,194 6.9 -9.9°
Reaches altitude 10° 16:46:30 10° 206° (SSW) 2,272 6.1 -10.3°
Maximum altitude 16:51:39 80° 294° (WNW) 771 3.6 -11.1°
Drops below altitude 10° 16:56:52 10° 21° (NNE) 2,294 5.9 -12.0°
Sets 16:59:15 0° 23° (NNE) 3,226 6.7 -12.3°
